Regional Weather Roundup
Issued by NWS

Home | Current Version | Previous Version | Text Only | Print | Product List | Glossary On
Versions: 1 2 3 4 5 6 7 8 9 10 11 12 13 14 15 16 17 18 19 20 21 22 23 24 25 26 27 28 29 30 31 32 33 34 35 36 37 38 39 40 41 42 43 44 45 46 47 48 49 50
000
ASUS44 KBMX 251310
RWRAL

ALABAMA REGIONAL WEATHER ROUNDUP
NATIONAL WEATHER SERVICE BIRMINGHAM AL
800 AM CDT SAT APR 25 2015

NOTE: "FAIR" INDICATES FEW OR NO CLOUDS BELOW 12,000 FEET
WITH NO SIGNIFICANT WEATHER AND/OR OBSTRUCTIONS TO VISIBILITY.

THE REMARK "TC" DENOTES TEMPERATURE IN DEGREES CELSIUS.

ALZ001>011-014-016>018-020-251400-
NORTH ALABAMA

CITY           SKY/WX    TMP DP  RH WIND       PRES   REMARKS
MUSCLE SHOALS  PTSUNNY   64  60  87 S12       29.74R
HUNTSVILLE     PTSUNNY   62  58  86 S8        29.75R
DECATUR        PTSUNNY   61  59  93 S6        29.75R
HALEYVILLE     FOG       59  59 100 S7        29.78F VSB 1/2
GADSDEN        CLOUDY   N/A N/A N/A NE3       29.77F
$$

ALZ012-013-022-023-030>036-040>044-251400-
WEST CENTRAL ALABAMA

CITY           SKY/WX    TMP DP  RH WIND       PRES   REMARKS
TUSCALOOSA     CLOUDY    66  65  96 S3        29.76F
$$

ALZ015-024>027-033>036-040>044-251400-
CENTRAL ALABAMA

CITY           SKY/WX    TMP DP  RH WIND       PRES   REMARKS
BIRMINGHAM     PTSUNNY   62  61  96 E5        29.78F
MONTGOMERY     CLOUDY    72  68  87 SW7       29.80S
SHELBY CO ARPT CLOUDY    63  61  93 CALM      29.79R
MAXWELL AFB    CLOUDY    71  68  90 W6        29.79F
GREENVILLE     CLOUDY    66  64  93 S5        29.83F THUNDER
$$

ALZ019-021-028-029-037-038-045>048-251400-
EAST CENTRAL ALABAMA

CITY           SKY/WX    TMP DP  RH WIND       PRES   REMARKS
ANNISTON       CLOUDY    61  58  90 NE8       29.79F
ALEXANDER CITY CLOUDY    69  65  85 E5        29.81F
AUBURN         NOT AVBL
$$

ALZ051>064-251400-
SOUTHWEST ALABAMA

CITY           SKY/WX    TMP DP  RH WIND       PRES   REMARKS
MOBILE         PTSUNNY   76  75  97 SW6       29.83S
BROOKLEY FIELD CLOUDY    77  74  90 SW5       29.83F
EVERGREEN      PTSUNNY   72  69  90 CALM      29.83R
$$

ALZ049-050-065>069-251400-
SOUTHEAST ALABAMA

CITY           SKY/WX    TMP DP  RH WIND       PRES   REMARKS
DOTHAN         LGT RAIN  72  70  93 S14G24    29.85F
OZARK          CLOUDY    70  65  84 SW10      29.83S
TROY           LGT RAIN  69  66  90 SW9G17    29.85R FOG
EUFAULA        TSTM      70  66  88 S5        29.83R
$$


USA.gov is the U.S. government's official web portal to all federal, state and local government web resources and services.